Regional Weather Roundup
Issued by NWS Grand Forks, ND

Home | Current Version | Previous Version | Text Only | Print | Product List | Glossary Off
Versions: 1 2 3 4 5 6 7 8 9 10 11 12 13 14 15 16 17 18 19 20 21 22 23 24 25 26 27 28 29 30 31 32 33 34 35 36 37 38 39 40 41 42 43 44 45 46 47 48 49 50

801
ASUS43 KFGF 230531
RWRFGF
PRAIRIE TO PINES  WEATHER ROUNDUP
NATIONAL WEATHER SERVICE EASTERN NORTH DAKOTA/GRAND FORKS ND
1200 AM CDT WED MAY 23 2018

 **SATELLITE DATA USED TO AUGMENT SKY COVER AT AUTOMATED STATIONS**
 *****  WEATHER ACROSS EASTERN NORTH DAKOTA  *****

CITY           SKY/WX    TMP DP  RH WIND       PRES   REMARKS
GRAND FORKS    FAIR      67  56  67 SE9       29.98R
GRAND FRKS AFB FAIR      66  54  66 S8        29.99R
GRAND FRKS NWS   N/A     69  55  60 SE10      29.96S
DEVILS LAKE    FAIR      66  55  67 SE8       29.99R
FARGO          FAIR      69  55  60 SE9       29.99R
WAHPETON ARPT  FAIR      68  52  56 SE10      30.00F
$$

 ***** WEATHER ACROSS CENTRAL AND WESTERN NORTH DAKOTA  *****

CITY           SKY/WX    TMP DP  RH WIND       PRES   REMARKS
BISMARCK       LGT RAIN  64  61  90 E18G26    29.98R
MINOT          FAIR      65  53  65 CALM      29.94S
JAMESTOWN      FAIR      68  54  60 SE7       29.97R
MINOT AFB      MOCLDY    67  54  63 N7        29.92F
GARRISON         N/A     62  53  72 CALM      29.94F
WILLISTON      CLOUDY    68  50  52 E9        29.93F
DICKINSON      CLOUDY    62  54  74 E5        29.95R
HETTINGER      MOCLDY    64  54  69 E13       29.96S
$$

 *****  OTHER AIRPORT OBSERVATIONS IN OUR AREA  *****

CITY           SKY/WX    TMP DP  RH WIND       PRES   REMARKS
WALHALLA       FAIR      64  57  77 S6        29.98R
GRAFTON AIRPOR FAIR      63  54  72 SE6       30.00S
VALLEY CITY AR FAIR      68  54  60 SE9       30.00S
CANDO          FAIR      66  54  63 SE12      29.99S
CAVALIER APRT    N/A     68  54  60 S9        29.98S
GWINNER          N/A     66  54  63 SE12      29.98S
SHEYENNE NWR     N/A     66  55  68 SE7       29.95S
ROLLA          FAIR      64  48  55 SE9       29.99R
 ***** THE ABOVE OBSERVATIONS ARE NON NWS ARE NOT QUALITY
       CONTROLLED AND MAY MIS-REPORT RAIN FOR SNOW...
$$

  *****  WEATHER ACROSS NORTHERN MINNESOTA  *****

CITY           SKY/WX    TMP DP  RH WIND       PRES   REMARKS
FLAG ISLAND    FAIR      61  54  77 S3        30.02R
WARROAD        FAIR      61  52  72 CALM      30.03S
ROSEAU         FAIR      63  54  72 SE5       30.02S
HALLOCK        FAIR      68  54  60 SE9       29.99S
THF RVR FALLS  FAIR      64  53  67 SE6       30.03R
BAUDETTE       FAIR      58  52  80 CALM      30.03S
WASKISH          N/A     57  54  88 CALM      30.05R
CROOKSTON      FAIR      63  54  72 SE8       30.01S
STEPHEN NDAWN    N/A     63  52  67 SE5         N/A
GREENBUSH NDAW   N/A     59  54  82 SE3         N/A
$$
  *****  WEATHER ACROSS CENTRAL AND WEST MINNESOTA  *****

CITY           SKY/WX    TMP DP  RH WIND       PRES   REMARKS
FOSSTON        FAIR      63  52  67 SE5       30.04S
BEMIDJI        FAIR      59  53  80 CALM      30.05S
PARK RAPIDS    FAIR      64  55  72 SE6       30.05S
ELBOW LAKE     FAIR      65  56  72 SE10      30.04R
WADENA         FAIR      61  54  77 SE3       30.05S
DETROIT LAKES  FAIR      63  55  77 SE6       30.05S
MOORHEAD       FAIR      66  54  63 SE7       30.01S
FERGUS FALLS   FAIR      66  55  68 SE8       29.99S
MORRIS MN      FAIR      66  55  68 E10       30.02S
STAPLES        FAIR      55  52  88 CALM      30.07R
$$
  *****  WEATHER ELSEWHERE ACROSS MINNESOTA  *****

CITY           SKY/WX    TMP DP  RH WIND       PRES   REMARKS
DULUTH         FAIR      60  53  77 W7        30.07R
INTRNTL FALLS  FAIR      54  48  80 CALM      30.03S
ELY            FAIR      50  45  81 CALM      30.06R
CLOQUET        FAIR      54  48  82 W3        30.08R
WHEATON        FAIR      64  54  68 E8        30.02S
BRAINERD       FAIR      57  54  89 CALM      30.07R
HIBBING        FAIR      51  49  92 CALM      30.06R
ALEXANDRIA     FAIR      66  55  67 SE8       30.07R
SAINT CLOUD    FAIR      61  55  81 E3        30.06R
MINNEAPOLIS    MOCLDY    65  58  78 SE7       30.07R
$$

  *****  WEATHER ACROSS SOUTH DAKOTA  *****

CITY           SKY/WX    TMP DP  RH WIND       PRES   REMARKS
SIOUX FALLS    CLOUDY    70  62  76 SE9       29.98S
BROOKINGS      FAIR      68  61  78 E7        30.00R
WATERTOWN      FAIR      68  60  75 SE5       29.99S
HURON          FAIR      67  62  84 E6        29.94S
SISSETON         N/A     65  56  72 SE3       29.99S
ABERDEEN       FAIR      68  55  63 E9        29.96S
MITCHELL       FAIR      68  65  90 SE7       29.94S
PIERRE         FAIR      68  64  87 E9        29.90F
MOBRIDGE       FAIR      68  59  73 SE8       29.92S
RAPID CITY     FAIR      58  55  90 NW14      29.93F
$$

  *****  SOME WEATHER IN NEARBY STATES *****

CITY           SKY/WX    TMP DP  RH WIND       PRES   REMARKS
GLASGOW MT     FAIR      63  49  60 CALM      29.92R
GREAT FALLS MT FAIR      59  51  75 NE5       30.00R
CHEYENNE WY    FAIR      53  51  93 NW6       30.05F
SCOTTSBLUFF NE LGT RAIN  63  56  78 SW9       29.95R
OMAHA NE       MOCLDY    74  63  68 S9        29.98S
DES MOINES IA  MOCLDY    73  63  70 SE9       30.03S
DAVENPORT IA   FAIR      62  58  86 E7        30.11S
CHICAGO IL     FAIR      54  51  90 CALM      30.09S
EAU CLAIRE WI  FAIR      55  55 100 CALM      30.08R
LA CROSSE WI   FAIR      59  56  89 E3        30.09R
$$

  *****  SOME NATIONAL WEATHER *****

CITY           SKY/WX    TMP DP  RH WIND       PRES   REMARKS
LA GUARDIA NY  CLOUDY    58  55  90 NE3       29.94F FOG
RALEIGH NC     MOCLDY    72  67  84 SW10      30.07S
ATLANTA GA     LGT RAIN  69  67  93 CALM      30.07F FOG
NEW ORLEANS LA FAIR      80  73  79 SE6       30.03S
OKLAHOMA CITY  FAIR      71  66  84 S6        30.01S
ALBUQUERQUE NM FAIR      69  15  12 SW9       29.99R
SALT LAKE CITY MOCLDY    58  48  69 S9        29.95S
LOS ANGELES CA CLOUDY    60  54  80 W8        29.93R
BOISE ID       FAIR      68  47  46 SE10      29.83S
SEATTLE WA     FAIR      66  50  56 N8        29.84R
$$

*** WEATHER ACROSS MANITOBA...SASKATCHEWAN AND ONTARIO ***
                ***ONTARIO***

CITY           SKY/WX    TMP DP  RH WIND       PRES   REMARKS
GERALDTON      PTCLDY    50  37  62 E9        30.07R
THUNDER BAY    PTCLDY    52  39  62 CALM      30.00R
SIOUX LOOKOUT  MOCLDY    50  45  81 CALM      30.02R
TORONTO        MOCLDY    59  55  88 NW9       29.97R
BIG TROUT LK   PTCLDY    34  27  75 E5        30.14S
PICKLE LAKE    NOT AVBL
DRYDEN         CLEAR     64  41  42 W5        30.02S
KENORA         CLEAR     66  45  45 SW5       30.02S
$$
                *** MANITOBA***

CITY           SKY/WX    TMP DP  RH WIND       PRES   REMARKS
BRANDON        PTCLDY    61  43  51 E5        29.95R
DAUPHIN        CLEAR     57  48  72 NW3       29.96R
ISLAND LAKE    PTCLDY    48  37  66 E7        30.07S
PILOT MOUND      N/A     61  48  63 SE8         N/A
THE PAS        CLEAR     57  46  67 SE8       30.01R
THOMPSON       PTCLDY    46  32  57 VRB2      30.05S
WINNIPEG       PTCLDY    70  54  56 S10       29.98R
LYNN LAKE      CLEAR     52  39  62 S7        29.96F
CHURCHILL      PTCLDY    28  25  86 S16       30.07F WCI  17
GILLAM         PTCLDY    36  25  64 SE6       30.09F
$$
                ***SASKATCHEWAN***

CITY           SKY/WX    TMP DP  RH WIND       PRES   REMARKS
ESTEVAN        MOCLDY    55  50  82 SE2       29.95S
KINDERSLEY     PTCLDY    63  39  42 SE13      29.94S
LLOYDMINSTER   CLEAR     64  43  45 S2        29.93S
PRINCE ALBERT  PTCLDY    66  50  55 E3        29.97R
REGINA         MOCLDY    59  52  77 SE8       29.94F
YORKTON        MOCLDY    57  48  72 NE2       29.96R
N. BATTLEFORD  CLEAR     63  45  51 E9        29.95R
LA RONGE       PTCLDY    64  46  52 SE8       29.96R
SASKATOON      PTCLDY    64  45  48 S3        29.95S
SWIFT CURRENT  PTCLDY    59  43  55 SE7       29.95S
$$
NOTE: THESE ARE AUTOMATED STATIONS WITH LIMITED QUALITY CONTROL
      "FAIR" INDICATES FEW OR NO CLOUDS BELOW 12,000 FEET WITH NO
      SIGNIFICANT WEATHER AND/OR OBSTRUCTIONS TO VISIBILITY.
      SKY/WX - SKY CONDITION AND SIGNIFICANT WEATHER.
      TMP - AIR TEMPERATURE.    DP   - DEWPOINT TEMPERATURE.
      RH  - RELATIVE HUMIDITY.  PRES - PRESSURE.
      HX  - HEAT INDEX.         WCI  - WIND CHILL INDEX.
$




USA.gov is the U.S. government's official web portal to all federal, state and local government web resources and services.